Location: Sternwarte-Kraichtal
(49.1689°N, 8.6996°E)
Time: 21:25:03
(UTC+01:00)

BlueWalker 3 - Visible Passes

Search period start: 28 February 2024 00:00
Search period end: 09 March 2024 00:00
Orbit: 485 x 500 km, 53.2° (Epoch: 28 February)

Date Brightness Start Highest point End Pass type
(mag) Time Alt. Az. Time Alt. Az. Time Alt. Az.
28 Feb 1.9 19:48:25 10° WNW 19:52:11 65° NNE 19:53:00 49° ENE visible
28 Feb 5.0 21:26:53 10° WNW 21:27:29 14° W 21:27:29 14° W visible
29 Feb 2.0 19:24:34 10° WNW 19:28:19 64° NNE 19:30:13 27° E visible
29 Feb 4.2 21:03:00 10° WNW 21:04:42 22° W 21:04:42 22° W visible
01 Mar 2.0 19:00:41 10° WNW 19:04:26 63° NNE 19:07:28 15° E visible
01 Mar 3.3 20:39:07 10° WNW 20:41:57 33° WSW 20:41:57 33° WSW visible
02 Mar 2.0 18:36:47 10° WNW 18:40:33 62° NNE 18:44:17 10° E visible
02 Mar 2.9 20:15:13 10° WNW 20:18:44 37° SW 20:19:16 35° SSW visible
03 Mar 3.0 19:51:18 10° WNW 19:54:50 38° SW 19:56:39 23° SSE visible
04 Mar 3.0 19:27:22 10° WNW 19:30:55 40° SW 19:34:07 12° SSE visible
05 Mar 3.0 19:03:26 10° WNW 19:07:00 41° SW 19:10:33 10° SE visible
